Regional Weather Roundup
Issued by NWS

Home | Current Version | Previous Version | Text Only | Print | Product List | Glossary Off
Versions: 1 2 3 4 5 6 7 8 9 10 11 12 13 14 15 16 17 18 19 20 21 22 23 24 25 26 27 28 29 30 31 32 33 34 35 36 37 38 39 40 41 42 43 44 45 46 47 48 49 50

000
ASUS43 KMKX 232111
RWRWI

WISCONSIN REGIONAL WEATHER ROUNDUP
NATIONAL WEATHER SERVICE MILWAUKEE/SULLIVAN WI
400 PM CDT MON OCT 23 2017

NOTE: "FAIR" INDICATES FEW OR NO CLOUDS BELOW 12,000 FEET WITH NO
SIGNIFICANT WEATHER AND/OR OBSTRUCTIONS TO VISIBILITY.

WIZ001-002-006>008-014>016-023>028-232200-
NORTHWEST WISCONSIN

CITY           SKY/WX    TMP DP  RH WIND       PRES   REMARKS
SUPERIOR ARPT  SUNNY     58  42  55 NW20      29.72R
ASHLAND        CLOUDY    62  42  47 NW9       29.67F
HAYWARD        CLOUDY    59  41  51 VRB6      29.69R
SIREN          PTSUNNY   56  38  51 NW15G25   29.73R
CUMBERLAND     CLOUDY    55  37  50 NW14      29.71R
RICE LAKE      CLOUDY    57  40  53 W12G20    29.72R
CHETEK         CLOUDY    57  42  56 W9        29.70S
LADYSMITH      PTSUNNY   56  44  62 W8        29.71S
EAU CLAIRE     CLOUDY    59  40  49 NW14      29.69F
MENOMONIE      PTSUNNY   58  40  52 W13G22    29.71S
NEW RICHMOND   PTSUNNY   56  37  49 NW17G25   29.75R
OSCEOLA        PTSUNNY   55  39  54 NW16G23   29.79R
$$

WIZ003>005-009-010-017-018-232200-
NORTH CENTRAL WISCONSIN

CITY           SKY/WX    TMP DP  RH WIND       PRES   REMARKS
MANITOWISH WTR CLOUDY    55  41  60 S6        29.67S
ARBOR VITAE    MOSUNNY   57  43  60 S3        29.68S
WOODRUFF       MOSUNNY   57  43  60 S3        29.68S
RHINELANDER    CLOUDY    53  41  63 S5        29.69S
EAGLE RIVER    CLOUDY    54  38  54 SW3       29.68S
LAND O LAKES   CLOUDY    55  37  50 CALM      29.70S
PHILLIPS       PTSUNNY   55  43  62 SW5       29.68S
TOMAHAWK       CLOUDY    53  40  62 CALM      29.70S
MEDFORD        CLOUDY    51  41  69 SW5       29.69F
MERRILL        CLOUDY    55  41  58 SW9       29.69F
$$

WIZ029-030-035-036-043>047-232200-
CENTRAL WISCONSIN

CITY           SKY/WX    TMP DP  RH WIND       PRES   REMARKS
WAUSAU         CLOUDY    55  41  59 W9        29.68S
MOSINEE        CLOUDY    54  43  66 SW9       29.71S
MARSHFIELD     CLOUDY    54  42  64 W7        29.69S
STEVENS POINT  MOSUNNY   55  41  59 W7        29.69F
WAUPACA        CLOUDY    55  45  67 CALM      29.70F
WAUTOMA        CLOUDY   N/A N/A N/A SW6       29.69F
WISC RAPIDS    CLOUDY    57  44  62 W5        29.70F
CAMP DOUGLAS   CLOUDY    57  43  58 W7        29.70F
$$

WIZ011>013-019>022-031-037>040-048>050-232200-
NORTHEAST WISCONSIN

CITY           SKY/WX    TMP DP  RH WIND       PRES   REMARKS
ANTIGO         CLOUDY    51  40  67 S5        29.70F
SHAWANO        CLOUDY    54  46  75 CALM      29.70F
OCONTO         CLOUDY    51  45  81 CALM      29.69F
STURGEON BAY   CLOUDY    51  46  83 NW7       29.70F
GREEN BAY      CLOUDY    53  46  77 NE3       29.68F
MANITOWOC      CLOUDY    52  44  74 N8        29.68F
APPLETON       PTSUNNY   54  37  54 CALM      29.68F
CLINTONVILLE   NOT AVBL
OSHKOSH        CLOUDY    54  41  61 CALM      29.67F
$$

WIZ032>034-041-042-053>061-232200-
SOUTHWEST WISCONSIN

CITY           SKY/WX    TMP DP  RH WIND       PRES   REMARKS
LA CROSSE      CLOUDY    56  47  71 CALM      29.72F
SPARTA         CLOUDY    55  44  66 W7        29.73S
VIROQUA        CLOUDY    53  44  71 W9        29.73F
BOSCOBEL       CLOUDY    60  43  53 NW8       29.72F
PRAIRIE DU CHI CLOUDY    53  45  76 W5        29.75R
PLATTEVILLE    PTSUNNY   58  45  62 NW13      29.73S
$$

WIZ056-057-062-063-064-067-068-232200-
SOUTH CENTRAL WISCONSIN

CITY           SKY/WX    TMP DP  RH WIND       PRES   REMARKS
REEDSBURG      CLOUDY    56  44  63 W9        29.69F
BARABOO/DELLS  CLOUDY    55  43  63 W9        29.70S
LONE ROCK      MOSUNNY   59  45  59 NW12      29.71F
MINERAL POINT  MOSUNNY   59  45  58 W7G17     29.71F
MADISON        CLOUDY    57  42  57 SW3       29.69F
MIDDLETON      CLOUDY    58  44  58 W7        29.70S
WATERTOWN      CLOUDY    53  44  71 CALM      29.69S
MONROE         CLOUDY    55  43  62 SW8       29.70F
JANESVILLE     CLOUDY    55  45  67 CALM      29.70S
$$

WIZ051-052-058>065-066-070>072-232200-
SOUTHEAST WISCONSIN

CITY           SKY/WX    TMP DP  RH WIND       PRES   REMARKS
MILWAUKEE      CLOUDY    54  47  77 NW8       29.69S
WAUKESHA       SUNNY     52  45  76 W6        29.70F
MILWAUKEE/TIMM SUNNY     54  45  71 W6        29.69F
RACINE         CLOUDY    53  49  86 W3        29.71R
BURLINGTON     CLOUDY    52  47  83 W3        29.70R
KENOSHA        CLOUDY    53  48  83 W7        29.69R
FOND DU LAC    CLOUDY    54  41  61 W3        29.68F
SHEBOYGAN      CLOUDY    53  47  79 NW3       29.68F
WEST BEND      CLOUDY    52  43  71 W5        29.68F
JUNEAU         CLOUDY    51  43  72 CALM      29.70S
$$

LSZ147-162-232200-
LAKE SUPERIOR

STATION/POSITION TIME  TEMP    WIND        PRES    WAVE
                       AIR SEA DIR/SP/G            HT/PER
                 (UTC) (F)     (DEG/KT/KT) (MB)    (FT/S)
W MID LAKE BUOY  2050   53 51              1004.7F   2/ 5
DEVILS ISLAND    2100   58     230/ 15/ 16 1004.5F
PORT WING        1840          260/ 10/ 13 1005.1
SAXON HARBOR     2040   60      80/  3/  3 1004.4F
$$

LMZ867-665-643>646-232200-
LAKE MICHIGAN

STATION/POSITION TIME  TEMP    WIND        PRES    WAVE
                       AIR SEA DIR/SP/G            HT/PER
                 (UTC) (F)     (DEG/KT/KT) (MB)    (FT/S)
S GREEN BAY BUOY 2100   52 58  360/  4/  6 1005.6
N MID LAKE BUOY  2050   54 57   20/  6/  6 1006.8F   0
NORTHPORT PIER   2040   53      60/  3/  3 1006.4F
KEWAUNEE LAKESHO 2042   49      10/  2/  3 1004.9F
SHEBOYGAN LAKESH 2100   50     350/  8/  8 1005.0F
PORT WASHINGTON  2030   54     300/  7/ 10 1005.8F
MILWAUKEE LAKESH 2050   54     300/  6/ 10   N/A
S MID LAKE BUOY  2050   54 60  350/ 17/ 19 1004.5R   3/ 4
KENOSHA   LAKESH 2100   53     300/  4/  9 1005.4
$$

TC  - TEMPERATURE IN CELSIUS
VSB - VISIBILITY IN STATUTE MILES
WCI - WIND CHILL INDEX
HX  - HEAT INDEX





USA.gov is the U.S. government's official web portal to all federal, state and local government web resources and services.